Regional Weather Roundup
Issued by NWS

Home | Current Version | Previous Version | Graphics & Text | Print | Product List | Glossary On
Versions: 1 2 3 4 5 6 7 8 9 10 11 12 13 14 15 16 17 18 19 20 21 22 23 24 25 26 27 28 29 30 31 32 33 34 35 36 37 38 39 40 41 42 43 44 45 46 47 48 49 50
000
ASUS43 KLSX 290807
RWRMO

WEATHER SUMMARY FOR MISSOURI
NATIONAL WEATHER SERVICE SPRINGFIELD MO
300 AM CDT SUN MAR 29 2015

NOTE: "FAIR" INDICATES FEW OR NO CLOUDS BELOW 12,000 FEET WITH NO
       SIGNIFICANT WEATHER AND/OR OBSTRUCTIONS TO VISIBILITY.
       CURRENT SKY AND/OR WEATHER CONDITIONS ARE NOT AVAILABLE FOR
       CHILLICOTHE AND FARMINGTON.

MOZ001>031-035>038-043-044-053-054-290900-
...NORTHERN AND WESTERN MISSOURI...

CITY           SKY/WX    TMP DP  RH WIND       PRES   REMARKS
KANSAS CTY INT PTCLDY    39  32  76 S16       29.98F
KANSAS C DTWN  CLEAR     40  32  73 VRB6G18   30.01F
LEE`S SUMMIT   CLEAR     37  31  78 S15G23    30.01F WCI  28
ST JOSEPH      PTCLDY    40  33  76 S13       29.98F
CHILLICOTHE      N/A     39  31  72 S10       30.04F
KIRKSVILLE     CLEAR     32  26  78 S13       30.08F WCI  22

$$
MOZ066>068-077>081-088>096-101>105-290900-
...SOUTHWEST MISSOURI...

CITY           SKY/WX    TMP DP  RH WIND       PRES   REMARKS
SPRINGFIELD    CLEAR     35  29  78 SE24G32   30.09F WCI  23
JOPLIN         CLEAR     40  32  73 SE13      30.04F

$$
MOZ032>034-039>042-045>050-055>058-069>072-290900-
...CENTRAL MISSOURI...

CITY           SKY/WX    TMP DP  RH WIND       PRES   REMARKS
COLUMBIA       CLEAR     35  29  78 S15       30.12F WCI  25
JEFFERSON CITY CLEAR     36  28  73 SE10      30.15F WCI  28
ROLLA          CLEAR     34  26  72 S16       30.14F WCI  24
SEDALIA        CLEAR     37  30  75 SE16      30.07F WCI  28
WHITEMAN AFB   CLEAR     36  31  84 S12       30.03F WCI  28
WARRENSBURG    CLEAR     36  32  87 SE13      30.04F WCI  27
OSAGE BEACH    CLEAR     36  27  69 S12G17    30.13F WCI  27

$$
MOZ051-052-059>065-290900-
...EAST CENTRAL MISSOURI...

CITY           SKY/WX    TMP DP  RH WIND       PRES   REMARKS
ST LOUIS INTL  CLEAR     36  18  48 SE10      30.23F WCI  28
SPIRIT OF STL  CLEAR     33  19  56 CALM      30.21F
ST CHARLES     CLEAR     32  22  66 SE8       30.22F WCI  25

$$
MOZ072>076-082>087-097>100-106>115-290900-
...SOUTH CENTRAL AND SOUTHEAST MISSOURI...

CITY           SKY/WX    TMP DP  RH WIND       PRES   REMARKS
CAPE GIRARDEAU CLEAR     31  24  75 SE5       30.30F WCI  26
FARMINGTON     CLEAR     30  27  86 SE7       30.25F WCI  23
POPLAR BLUFF   CLEAR     32  30  92 CALM      30.27F FOG
WEST PLAINS    CLEAR     31  27  85 SE5       30.21F WCI  26

$$


USA.gov is the U.S. government's official web portal to all federal, state and local government web resources and services.